Location: Boiro
(42.6475°N, 8.8834°W)
Time: 18:18:47
(UTC+01:00)

Transit 2A - Pass Details

Date: 05 December 2021
Orbit: 591 x 967 km, 66.7° (Epoch: 20 January)

Event Time Altitude Azimuth Distance (km) Brightness Sun altitude
Rises 11:11:47 0° 321° (NW) 3,662 8.9 17.9°
Reaches altitude 10° 11:14:37 10° 312° (NW) 2,703 8.3 18.2°
Maximum altitude 11:20:10 33° 252° (WSW) 1,534 7.6 18.7°
Drops below altitude 10° 11:25:27 10° 190° (S) 2,564 9.6 19.2°
Sets 11:28:05 0° 181° (S) 3,448 10.4 19.5°
